Time,TemperatureF,DewpointF,PressureIn,WindDirection,WindDirectionDegrees,WindSpeedMPH,WindSpeedGustMPH,Humidity,HourlyPrecipIn,Conditions,Clouds,dailyrainin,SoftwareType,DateUTC
2013-07-08 00:01:00,74.8,73.0,29.93,WNW,294,0.0,0.0,94,0.00,,,0.00,meteohub,2013-07-08 04:01:00,
2013-07-08 00:02:00,74.8,73.0,29.93,WNW,294,0.0,0.0,94,0.00,,,0.00,meteohub,2013-07-08 04:02:00,
2013-07-08 00:07:00,74.7,72.9,29.93,WNW,294,0.0,0.0,94,0.00,,,0.00,meteohub,2013-07-08 04:07:00,
2013-07-08 00:12:00,74.7,72.9,29.93,WNW,294,0.0,0.0,94,0.00,,,0.00,meteohub,2013-07-08 04:12:00,
2013-07-08 00:17:00,74.5,72.7,29.93,WNW,294,0.0,0.0,94,0.00,,,0.00,meteohub,2013-07-08 04:17:00,
2013-07-08 00:23:00,74.5,72.7,29.94,WNW,294,0.0,0.0,94,0.00,,,0.00,meteohub,2013-07-08 04:23:00,
2013-07-08 00:28:00,74.3,72.5,29.94,WNW,294,0.0,0.0,94,0.00,,,0.00,meteohub,2013-07-08 04:28:00,
2013-07-08 00:33:00,74.1,72.3,29.94,WNW,294,0.0,0.0,94,0.00,,,0.00,meteohub,2013-07-08 04:33:00,
2013-07-08 00:38:00,74.1,72.3,29.94,WNW,294,0.0,0.0,94,0.00,,,0.00,meteohub,2013-07-08 04:38:00,
2013-07-08 00:43:00,73.9,72.1,29.94,WNW,294,0.0,0.0,94,0.00,,,0.00,meteohub,2013-07-08 04:43:00,
2013-07-08 00:48:00,73.9,72.5,29.94,WNW,294,0.0,0.0,95,0.00,,,0.00,meteohub,2013-07-08 04:48:00,
2013-07-08 00:53:00,73.9,72.5,29.94,WNW,294,0.0,0.0,95,0.00,,,0.00,meteohub,2013-07-08 04:53:00,
2013-07-08 00:59:00,73.9,72.5,29.94,WNW,294,0.0,0.0,95,0.00,,,0.00,meteohub,2013-07-08 04:59:00,
2013-07-08 01:04:00,74.1,72.7,29.95,WNW,294,0.0,0.0,95,0.00,,,0.00,meteohub,2013-07-08 05:04:00,
2013-07-08 01:09:00,74.3,72.5,29.94,WNW,294,0.0,0.0,94,0.00,,,0.00,meteohub,2013-07-08 05:09:00,
2013-07-08 01:14:00,74.5,72.7,29.95,WNW,294,0.0,0.0,94,0.00,,,0.00,meteohub,2013-07-08 05:14:00,
2013-07-08 01:19:00,74.7,72.5,29.95,WNW,294,0.0,0.0,93,0.00,,,0.00,meteohub,2013-07-08 05:19:00,
2013-07-08 01:24:00,74.7,72.5,29.95,WNW,294,0.0,0.0,93,0.00,,,0.00,meteohub,2013-07-08 05:24:00,
2013-07-08 01:30:00,74.7,72.5,29.95,WNW,294,0.0,0.0,93,0.00,,,0.00,meteohub,2013-07-08 05:30:00,
2013-07-08 01:35:00,74.7,72.5,29.95,WNW,294,0.0,0.0,93,0.00,,,0.00,meteohub,2013-07-08 05:35:00,
2013-07-08 01:40:00,74.5,72.3,29.95,WNW,294,0.0,0.0,93,0.00,,,0.00,meteohub,2013-07-08 05:40:00,
2013-07-08 01:45:00,74.1,72.0,29.95,WNW,294,0.0,0.0,93,0.00,,,0.00,meteohub,2013-07-08 05:45:00,
2013-07-08 01:50:00,74.1,72.0,29.95,WNW,294,0.0,0.0,93,0.00,,,0.00,meteohub,2013-07-08 05:50:00,
2013-07-08 01:55:00,73.9,71.8,29.95,WNW,294,0.0,0.0,93,0.00,,,0.00,meteohub,2013-07-08 05:55:00,
2013-07-08 02:01:00,73.8,72.0,29.95,WNW,294,0.0,0.0,94,0.00,,,0.00,meteohub,2013-07-08 06:01:00,
2013-07-08 02:06:00,73.8,72.0,29.94,WNW,294,0.0,0.0,94,0.00,,,0.00,meteohub,2013-07-08 06:06:00,
2013-07-08 02:11:00,73.6,71.8,29.94,WNW,294,0.0,0.0,94,0.00,,,0.00,meteohub,2013-07-08 06:11:00,
2013-07-08 02:16:00,73.4,71.6,29.94,WNW,294,0.0,0.0,94,0.00,,,0.00,meteohub,2013-07-08 06:16:00,
2013-07-08 02:21:00,73.2,71.4,29.94,WNW,294,0.0,0.0,94,0.00,,,0.00,meteohub,2013-07-08 06:21:00,
2013-07-08 02:26:00,73.0,71.2,29.94,WNW,294,0.0,0.0,94,0.00,,,0.00,meteohub,2013-07-08 06:26:00,
2013-07-08 02:32:00,73.0,71.2,29.94,WNW,294,0.0,0.0,94,0.00,,,0.00,meteohub,2013-07-08 06:32:00,
2013-07-08 02:37:00,72.9,71.4,29.94,WNW,294,0.0,0.0,95,0.00,,,0.00,meteohub,2013-07-08 06:37:00,
2013-07-08 02:42:00,72.9,71.4,29.94,WNW,294,0.0,0.0,95,0.00,,,0.00,meteohub,2013-07-08 06:42:00,
2013-07-08 02:47:00,72.7,71.2,29.94,WNW,294,0.0,0.0,95,0.00,,,0.00,meteohub,2013-07-08 06:47:00,
2013-07-08 02:52:00,72.7,71.2,29.94,WNW,294,0.0,0.0,95,0.00,,,0.00,meteohub,2013-07-08 06:52:00,
2013-07-08 02:57:00,72.7,71.2,29.94,WNW,294,0.0,0.0,95,0.00,,,0.00,meteohub,2013-07-08 06:57:00,
2013-07-08 03:02:00,72.5,71.1,29.94,WNW,294,0.0,0.0,95,0.00,,,0.00,meteohub,2013-07-08 07:02:00,
2013-07-08 03:07:00,72.3,70.9,29.94,WNW,294,0.0,0.0,95,0.00,,,0.00,meteohub,2013-07-08 07:07:00,
2013-07-08 03:12:00,72.3,70.9,29.94,WNW,294,0.0,0.0,95,0.00,,,0.00,meteohub,2013-07-08 07:12:00,
2013-07-08 03:17:00,72.1,70.0,29.94,WNW,294,0.0,0.0,93,0.00,,,0.00,meteohub,2013-07-08 07:17:00,
2013-07-08 03:22:00,72.1,70.0,29.94,WNW,294,0.0,0.0,93,0.00,,,0.00,meteohub,2013-07-08 07:22:00,
2013-07-08 03:27:00,72.1,69.6,29.94,WNW,294,0.0,0.0,92,0.00,,,0.00,meteohub,2013-07-08 07:27:00,
2013-07-08 03:32:00,72.0,69.3,29.93,WNW,294,0.0,0.0,91,0.00,,,0.00,meteohub,2013-07-08 07:32:00,
2013-07-08 03:37:00,72.0,69.3,29.94,WNW,294,0.0,0.0,91,0.00,,,0.00,meteohub,2013-07-08 07:37:00,
2013-07-08 03:42:00,72.0,69.3,29.94,WNW,294,0.0,0.0,91,0.00,,,0.00,meteohub,2013-07-08 07:42:00,
2013-07-08 03:47:00,71.8,68.7,29.94,WNW,294,0.0,0.0,90,0.00,,,0.00,meteohub,2013-07-08 07:47:00,
2013-07-08 03:52:00,71.8,68.7,29.94,WNW,294,0.0,0.0,90,0.00,,,0.00,meteohub,2013-07-08 07:52:00,
2013-07-08 03:57:00,71.8,68.4,29.93,WNW,294,0.0,0.0,89,0.00,,,0.00,meteohub,2013-07-08 07:57:00,
2013-07-08 04:02:00,71.8,68.4,29.94,WNW,294,0.0,0.0,89,0.00,,,0.00,meteohub,2013-07-08 08:02:00,
2013-07-08 04:07:00,71.6,68.2,29.94,WNW,294,0.0,0.0,89,0.00,,,0.00,meteohub,2013-07-08 08:07:00,
2013-07-08 04:12:00,71.6,67.8,29.94,WNW,294,0.0,0.0,88,0.00,,,0.00,meteohub,2013-07-08 08:12:00,
2013-07-08 04:17:00,71.8,68.0,29.94,WNW,294,0.0,0.0,88,0.00,,,0.00,meteohub,2013-07-08 08:17:00,
2013-07-08 04:22:00,71.8,67.6,29.94,WNW,294,0.0,0.0,87,0.00,,,0.00,meteohub,2013-07-08 08:22:00,
2013-07-08 04:27:00,71.8,67.6,29.94,WNW,294,0.0,0.0,87,0.00,,,0.00,meteohub,2013-07-08 08:27:00,
2013-07-08 04:32:00,71.8,67.6,29.94,WNW,294,0.0,0.0,87,0.00,,,0.00,meteohub,2013-07-08 08:32:00,
2013-07-08 04:37:00,71.8,67.3,29.94,WNW,294,0.0,0.0,86,0.00,,,0.00,meteohub,2013-07-08 08:37:00,
2013-07-08 04:42:00,71.6,67.5,29.94,WNW,294,0.0,0.0,87,0.00,,,0.00,meteohub,2013-07-08 08:42:00,
2013-07-08 04:47:00,71.6,67.1,29.94,WNW,294,0.0,0.0,86,0.00,,,0.00,meteohub,2013-07-08 08:47:00,
2013-07-08 04:52:00,71.6,67.5,29.94,WNW,294,0.0,0.0,87,0.00,,,0.00,meteohub,2013-07-08 08:52:00,
2013-07-08 04:57:00,71.6,67.5,29.94,WNW,294,0.0,0.0,87,0.00,,,0.00,meteohub,2013-07-08 08:57:00,
2013-07-08 05:02:00,71.6,67.5,29.94,WNW,294,0.0,0.0,87,0.00,,,0.00,meteohub,2013-07-08 09:02:00,
2013-07-08 05:07:00,71.4,67.3,29.94,WNW,294,0.0,0.0,87,0.00,,,0.00,meteohub,2013-07-08 09:07:00,
2013-07-08 05:12:00,71.2,67.5,29.95,WNW,294,0.0,0.0,88,0.00,,,0.00,meteohub,2013-07-08 09:12:00,
2013-07-08 05:17:00,71.1,67.3,29.95,WNW,294,0.0,0.0,88,0.00,,,0.00,meteohub,2013-07-08 09:17:00,
2013-07-08 05:22:00,70.9,67.1,29.95,WNW,294,0.0,0.0,88,0.00,,,0.00,meteohub,2013-07-08 09:22:00,
2013-07-08 05:27:00,70.9,67.5,29.95,WNW,294,0.0,0.0,89,0.00,,,0.00,meteohub,2013-07-08 09:27:00,
2013-07-08 05:33:00,70.5,67.1,29.95,WNW,294,0.0,0.0,89,0.00,,,0.00,meteohub,2013-07-08 09:33:00,
2013-07-08 05:38:00,70.5,67.5,29.96,WNW,294,0.0,0.0,90,0.00,,,0.00,meteohub,2013-07-08 09:38:00,
2013-07-08 05:43:00,70.3,67.3,29.96,WNW,294,0.0,0.0,90,0.00,,,0.00,meteohub,2013-07-08 09:43:00,
2013-07-08 05:48:00,70.3,67.3,29.96,WNW,294,0.0,0.0,90,0.00,,,0.00,meteohub,2013-07-08 09:48:00,
2013-07-08 05:53:00,70.3,67.3,29.96,WNW,294,0.0,0.0,90,0.00,,,0.00,meteohub,2013-07-08 09:53:00,
2013-07-08 05:58:00,70.3,67.6,29.96,WNW,294,0.0,0.0,91,0.00,,,0.00,meteohub,2013-07-08 09:58:00,
2013-07-08 06:04:00,70.3,67.6,29.96,WNW,294,0.0,0.0,91,0.00,,,0.00,meteohub,2013-07-08 10:04:00,
2013-07-08 06:09:00,70.3,67.6,29.96,WNW,294,0.0,0.0,91,0.00,,,0.00,meteohub,2013-07-08 10:09:00,
2013-07-08 06:14:00,70.3,67.6,29.96,WNW,294,0.0,0.0,91,0.00,,,0.00,meteohub,2013-07-08 10:14:00,
2013-07-08 06:19:00,70.3,67.6,29.97,WNW,294,0.0,0.0,91,0.00,,,0.00,meteohub,2013-07-08 10:19:00,
2013-07-08 06:24:00,70.5,67.8,29.96,WNW,294,0.0,0.0,91,0.00,,,0.00,meteohub,2013-07-08 10:24:00,
2013-07-08 06:29:00,70.9,68.2,29.97,WNW,294,0.0,0.0,91,0.00,,,0.00,meteohub,2013-07-08 10:29:00,
2013-07-08 06:35:00,71.1,68.4,29.97,WNW,294,0.0,0.0,91,0.00,,,0.00,meteohub,2013-07-08 10:35:00,
2013-07-08 06:40:00,71.2,68.5,29.97,WNW,294,0.0,0.0,91,0.00,,,0.00,meteohub,2013-07-08 10:40:00,
2013-07-08 06:45:00,71.8,69.1,29.97,WNW,294,0.0,0.0,91,0.00,,,0.00,meteohub,2013-07-08 10:45:00,
2013-07-08 06:50:00,72.0,68.9,29.97,WNW,294,0.0,0.0,90,0.00,,,0.00,meteohub,2013-07-08 10:50:00,
2013-07-08 06:55:00,72.1,68.7,29.97,WNW,294,0.0,0.0,89,0.00,,,0.00,meteohub,2013-07-08 10:55:00,
2013-07-08 07:00:00,72.3,68.9,29.97,WNW,294,0.0,0.0,89,0.00,,,0.00,meteohub,2013-07-08 11:00:00,
2013-07-08 07:06:00,72.7,69.3,29.97,WNW,294,0.0,0.0,89,0.00,,,0.00,meteohub,2013-07-08 11:06:00,
2013-07-08 07:11:00,73.0,70.0,29.98,WNW,294,0.0,0.0,90,0.00,,,0.00,meteohub,2013-07-08 11:11:00,
2013-07-08 07:16:00,73.9,70.2,29.98,WNW,294,0.0,0.0,88,0.00,,,0.00,meteohub,2013-07-08 11:16:00,
2013-07-08 07:21:00,74.8,70.3,29.98,WNW,294,0.0,0.0,86,0.00,,,0.00,meteohub,2013-07-08 11:21:00,
2013-07-08 07:26:00,75.6,70.7,29.98,WNW,294,0.0,0.0,85,0.00,,,0.00,meteohub,2013-07-08 11:26:00,
2013-07-08 07:31:00,75.9,70.3,29.98,WNW,294,0.0,0.0,83,0.00,,,0.00,meteohub,2013-07-08 11:31:00,
2013-07-08 07:37:00,75.9,70.3,29.99,WNW,294,0.0,0.0,83,0.00,,,0.00,meteohub,2013-07-08 11:37:00,
2013-07-08 07:42:00,75.6,70.0,29.99,WNW,294,0.0,0.0,83,0.00,,,0.00,meteohub,2013-07-08 11:42:00,
2013-07-08 07:47:00,75.4,70.2,29.99,WNW,294,0.0,0.0,84,0.00,,,0.00,meteohub,2013-07-08 11:47:00,
2013-07-08 07:52:00,75.0,69.8,29.99,WNW,294,0.0,0.0,84,0.00,,,0.00,meteohub,2013-07-08 11:52:00,
2013-07-08 07:57:00,75.4,70.5,29.99,WNW,294,0.0,0.0,85,0.00,,,0.00,meteohub,2013-07-08 11:57:00,
2013-07-08 08:02:00,75.6,70.3,29.99,WNW,294,0.0,0.0,84,0.00,,,0.00,meteohub,2013-07-08 12:02:00,
2013-07-08 08:07:00,75.7,70.5,29.99,WNW,294,0.0,0.0,84,0.00,,,0.00,meteohub,2013-07-08 12:07:00,
2013-07-08 08:12:00,76.1,70.9,29.99,WNW,294,0.0,0.0,84,0.00,,,0.00,meteohub,2013-07-08 12:12:00,
2013-07-08 08:17:00,76.6,70.7,29.99,WNW,294,0.0,0.0,82,0.00,,,0.00,meteohub,2013-07-08 12:17:00,
2013-07-08 08:22:00,77.2,71.2,29.99,WNW,294,0.0,0.0,82,0.00,,,0.00,meteohub,2013-07-08 12:22:00,
2013-07-08 08:27:00,77.7,71.4,29.99,WNW,294,0.0,0.0,81,0.00,,,0.00,meteohub,2013-07-08 12:27:00,
2013-07-08 08:32:00,78.3,71.2,29.99,WNW,294,0.0,0.0,79,0.00,,,0.00,meteohub,2013-07-08 12:32:00,
2013-07-08 08:37:00,78.6,71.6,29.99,WNW,294,0.0,0.0,79,0.00,,,0.00,meteohub,2013-07-08 12:37:00,
2013-07-08 08:42:00,79.0,72.0,29.99,WNW,294,0.0,0.0,79,0.00,,,0.00,meteohub,2013-07-08 12:42:00,
2013-07-08 08:47:00,79.3,72.0,29.99,WNW,294,0.0,0.0,78,0.00,,,0.00,meteohub,2013-07-08 12:47:00,
2013-07-08 08:52:00,79.5,72.5,29.98,WNW,294,0.0,0.0,79,0.00,,,0.00,meteohub,2013-07-08 12:52:00,
2013-07-08 08:57:00,80.2,73.6,29.99,WNW,294,0.0,0.0,80,0.00,,,0.00,meteohub,2013-07-08 12:57:00,
2013-07-08 09:02:00,80.4,71.8,29.99,WNW,294,0.0,0.0,75,0.00,,,0.00,meteohub,2013-07-08 13:02:00,
2013-07-08 09:07:00,80.6,72.3,29.98,WNW,294,0.0,0.0,76,0.00,,,0.00,meteohub,2013-07-08 13:07:00,
2013-07-08 09:12:00,81.0,73.0,29.99,WNW,294,0.0,0.0,77,0.00,,,0.00,meteohub,2013-07-08 13:12:00,
2013-07-08 09:17:00,81.3,73.0,29.99,WNW,294,0.0,0.0,76,0.00,,,0.00,meteohub,2013-07-08 13:17:00,
2013-07-08 09:23:00,81.7,73.0,29.99,WNW,294,0.0,0.0,75,0.00,,,0.00,meteohub,2013-07-08 13:23:00,
2013-07-08 09:28:00,82.2,73.6,29.98,WNW,294,0.0,0.0,75,0.00,,,0.00,meteohub,2013-07-08 13:28:00,
2013-07-08 09:33:00,82.6,72.1,29.99,WNW,294,0.0,0.0,71,0.00,,,0.00,meteohub,2013-07-08 13:33:00,
2013-07-08 09:38:00,82.4,73.2,29.99,WNW,294,0.0,0.0,74,0.00,,,0.00,meteohub,2013-07-08 13:38:00,
2013-07-08 09:43:00,82.9,73.0,29.99,WNW,294,0.0,0.0,72,0.00,,,0.00,meteohub,2013-07-08 13:43:00,
2013-07-08 09:48:00,83.7,72.3,29.99,WNW,294,0.0,0.0,69,0.00,,,0.00,meteohub,2013-07-08 13:48:00,
2013-07-08 09:54:00,83.1,72.3,29.99,WNW,294,0.0,0.0,70,0.00,,,0.00,meteohub,2013-07-08 13:54:00,
2013-07-08 09:59:00,83.1,73.6,29.99,WNW,294,0.0,0.0,73,0.00,,,0.00,meteohub,2013-07-08 13:59:00,
2013-07-08 10:04:00,83.3,72.5,29.99,WNW,294,0.0,0.0,70,0.00,,,0.00,meteohub,2013-07-08 14:04:00,
2013-07-08 10:09:00,83.5,72.7,29.99,WNW,294,0.0,0.0,70,0.00,,,0.00,meteohub,2013-07-08 14:09:00,
2013-07-08 10:14:00,84.0,73.2,29.99,WNW,294,0.0,0.0,70,0.00,,,0.00,meteohub,2013-07-08 14:14:00,
2013-07-08 10:19:00,84.6,73.8,29.99,WNW,294,0.0,0.0,70,0.00,,,0.00,meteohub,2013-07-08 14:19:00,
2013-07-08 10:24:00,85.6,75.2,29.99,WNW,294,0.0,0.0,71,0.00,,,0.00,meteohub,2013-07-08 14:24:00,
2013-07-08 10:29:00,85.8,73.6,29.99,WNW,294,0.0,0.0,67,0.00,,,0.00,meteohub,2013-07-08 14:29:00,
2013-07-08 10:35:00,85.6,73.4,29.99,WNW,294,0.0,0.0,67,0.00,,,0.00,meteohub,2013-07-08 14:35:00,
2013-07-08 10:40:00,85.3,75.2,29.99,WNW,294,0.0,0.0,72,0.00,,,0.00,meteohub,2013-07-08 14:40:00,
2013-07-08 10:45:00,85.3,75.2,29.99,WNW,294,0.0,0.0,72,0.00,,,0.00,meteohub,2013-07-08 14:45:00,
2013-07-08 10:46:00,85.3,76.1,29.99,WNW,294,0.0,0.0,74,0.00,,,0.00,meteohub,2013-07-08 14:46:00,
2013-07-08 10:51:00,86.4,76.3,29.99,WNW,294,0.0,0.0,72,0.00,,,0.00,meteohub,2013-07-08 14:51:00,
2013-07-08 10:56:00,87.1,77.4,29.99,WNW,294,0.0,0.0,73,0.00,,,0.00,meteohub,2013-07-08 14:56:00,
2013-07-08 11:01:00,87.6,76.1,29.99,WNW,294,0.0,0.0,69,0.00,,,0.00,meteohub,2013-07-08 15:01:00,
2013-07-08 11:03:00,87.6,76.6,29.99,WNW,294,0.0,0.0,70,0.00,,,0.00,meteohub,2013-07-08 15:03:00,
2013-07-08 11:08:00,88.5,76.1,29.99,WNW,294,0.0,0.0,67,0.00,,,0.00,meteohub,2013-07-08 15:08:00,
2013-07-08 11:13:00,88.5,76.6,29.99,WNW,294,0.0,0.0,68,0.00,,,0.00,meteohub,2013-07-08 15:13:00,
2013-07-08 11:18:00,88.0,76.1,29.99,WNW,294,0.0,0.0,68,0.00,,,0.00,meteohub,2013-07-08 15:18:00,
2013-07-08 11:23:00,88.0,77.0,29.99,WNW,294,0.0,0.0,70,0.00,,,0.00,meteohub,2013-07-08 15:23:00,
2013-07-08 11:29:00,88.9,77.0,29.99,WNW,294,0.0,0.0,68,0.00,,,0.00,meteohub,2013-07-08 15:29:00,
2013-07-08 11:34:00,88.9,76.5,29.99,WNW,294,0.0,0.0,67,0.00,,,0.00,meteohub,2013-07-08 15:34:00,
2013-07-08 11:39:00,89.1,75.2,29.99,WNW,294,0.0,0.0,64,0.00,,,0.00,meteohub,2013-07-08 15:39:00,
2013-07-08 11:44:00,89.1,74.8,29.99,WNW,294,0.0,0.0,63,0.00,,,0.00,meteohub,2013-07-08 15:44:00,
2013-07-08 11:49:00,88.5,75.7,29.99,WNW,294,0.0,0.0,66,0.00,,,0.00,meteohub,2013-07-08 15:49:00,
2013-07-08 11:54:00,88.5,76.1,29.99,WNW,294,0.0,0.0,67,0.00,,,0.00,meteohub,2013-07-08 15:54:00,
2013-07-08 12:00:00,88.2,75.4,29.99,WNW,294,0.0,0.0,66,0.00,,,0.00,meteohub,2013-07-08 16:00:00,
2013-07-08 12:05:00,88.2,76.3,29.99,WNW,294,0.0,0.0,68,0.00,,,0.00,meteohub,2013-07-08 16:05:00,
2013-07-08 12:10:00,88.2,75.4,29.99,WNW,294,0.0,0.0,66,0.00,,,0.00,meteohub,2013-07-08 16:10:00,
2013-07-08 12:15:00,88.3,75.6,29.99,WNW,294,0.0,0.0,66,0.00,,,0.00,meteohub,2013-07-08 16:15:00,
2013-07-08 12:20:00,88.5,75.2,29.99,WNW,294,0.0,0.0,65,0.00,,,0.00,meteohub,2013-07-08 16:20:00,
2013-07-08 12:25:00,88.7,75.4,29.99,WNW,294,0.0,0.0,65,0.00,,,0.00,meteohub,2013-07-08 16:25:00,
2013-07-08 12:31:00,89.1,76.6,29.99,WNW,294,0.0,0.0,67,0.00,,,0.00,meteohub,2013-07-08 16:31:00,
2013-07-08 12:36:00,89.4,76.1,29.99,WNW,294,0.0,0.0,65,0.00,,,0.00,meteohub,2013-07-08 16:36:00,
2013-07-08 12:41:00,89.1,76.3,29.99,WNW,294,0.0,0.0,66,0.00,,,0.00,meteohub,2013-07-08 16:41:00,
2013-07-08 12:46:00,88.0,74.7,29.99,WNW,294,0.0,0.0,65,0.00,,,0.00,meteohub,2013-07-08 16:46:00,
2013-07-08 12:51:00,87.3,74.5,29.99,WNW,294,0.0,0.0,66,0.00,,,0.00,meteohub,2013-07-08 16:51:00,
2013-07-08 12:56:00,87.3,75.9,29.99,WNW,294,0.0,0.0,69,0.00,,,0.00,meteohub,2013-07-08 16:56:00,
2013-07-08 13:01:00,87.6,75.7,29.99,WNW,294,0.0,0.0,68,0.00,,,0.00,meteohub,2013-07-08 17:01:00,
2013-07-08 13:07:00,87.4,74.3,29.99,WNW,294,0.0,0.0,65,0.00,,,0.00,meteohub,2013-07-08 17:07:00,
2013-07-08 13:12:00,87.6,76.6,29.99,WNW,294,0.0,0.0,70,0.00,,,0.00,meteohub,2013-07-08 17:12:00,
2013-07-08 13:17:00,88.0,75.2,30.00,WNW,294,0.0,0.0,66,0.00,,,0.00,meteohub,2013-07-08 17:17:00,
2013-07-08 13:22:00,88.2,76.3,29.99,WNW,294,0.0,0.0,68,0.00,,,0.00,meteohub,2013-07-08 17:22:00,
2013-07-08 13:27:00,88.0,74.7,29.99,WNW,294,0.0,0.0,65,0.00,,,0.00,meteohub,2013-07-08 17:27:00,
2013-07-08 13:32:00,88.0,76.5,29.99,WNW,294,0.0,0.0,69,0.00,,,0.00,meteohub,2013-07-08 17:32:00,
2013-07-08 13:37:00,88.2,75.4,29.99,WNW,294,0.0,0.0,66,0.00,,,0.00,meteohub,2013-07-08 17:37:00,
2013-07-08 13:42:00,87.6,74.8,29.99,WNW,294,0.0,0.0,66,0.00,,,0.00,meteohub,2013-07-08 17:42:00,
2013-07-08 13:48:00,87.1,73.4,29.99,WNW,294,0.0,0.0,64,0.00,,,0.00,meteohub,2013-07-08 17:48:00,
2013-07-08 13:53:00,86.5,72.9,29.99,WNW,294,0.0,0.0,64,0.00,,,0.00,meteohub,2013-07-08 17:53:00,
2013-07-08 13:58:00,86.5,75.9,29.99,WNW,294,0.0,0.0,71,0.00,,,0.00,meteohub,2013-07-08 17:58:00,
2013-07-08 14:03:00,87.1,73.4,29.99,WNW,294,0.0,0.0,64,0.00,,,0.00,meteohub,2013-07-08 18:03:00,
2013-07-08 14:08:00,87.3,73.6,29.99,WNW,294,0.0,0.0,64,0.00,,,0.00,meteohub,2013-07-08 18:08:00,
2013-07-08 14:13:00,87.8,74.5,29.99,WNW,294,0.0,0.0,65,0.00,,,0.00,meteohub,2013-07-08 18:13:00,
2013-07-08 14:19:00,88.3,72.7,29.98,WNW,294,0.0,0.0,60,0.00,,,0.00,meteohub,2013-07-08 18:19:00,
2013-07-08 14:24:00,87.8,72.1,29.98,WNW,294,0.0,0.0,60,0.00,,,0.00,meteohub,2013-07-08 18:24:00,
2013-07-08 14:29:00,86.9,70.9,29.98,WNW,294,0.0,0.0,59,0.00,,,0.00,meteohub,2013-07-08 18:29:00,
2013-07-08 14:34:00,87.1,75.2,29.98,WNW,294,0.0,0.0,68,0.00,,,0.00,meteohub,2013-07-08 18:34:00,
2013-07-08 14:40:00,88.0,74.3,29.98,WNW,294,0.0,0.0,64,0.00,,,0.00,meteohub,2013-07-08 18:40:00,
2013-07-08 14:45:00,88.9,75.2,29.97,WNW,294,0.0,0.0,64,0.00,,,0.00,meteohub,2013-07-08 18:45:00,
2013-07-08 14:50:00,89.1,75.2,29.97,WNW,294,0.0,0.0,64,0.00,,,0.00,meteohub,2013-07-08 18:50:00,
2013-07-08 14:56:00,88.9,73.2,29.97,WNW,294,0.0,0.0,60,0.00,,,0.00,meteohub,2013-07-08 18:56:00,
2013-07-08 15:01:00,88.3,71.6,29.98,WNW,294,0.0,0.0,58,0.00,,,0.00,meteohub,2013-07-08 19:01:00,
2013-07-08 15:06:00,88.2,73.4,29.97,WNW,294,0.0,0.0,62,0.00,,,0.00,meteohub,2013-07-08 19:06:00,
2013-07-08 15:12:00,88.2,75.4,29.97,WNW,294,0.0,0.0,66,0.00,,,0.00,meteohub,2013-07-08 19:12:00,
2013-07-08 15:17:00,88.5,72.9,29.97,WNW,294,0.0,0.0,60,0.00,,,0.00,meteohub,2013-07-08 19:17:00,
2013-07-08 15:22:00,88.5,73.4,29.96,WNW,294,0.0,0.0,61,0.00,,,0.00,meteohub,2013-07-08 19:22:00,
2013-07-08 15:28:00,88.7,73.9,29.96,WNW,294,0.0,0.0,62,0.00,,,0.00,meteohub,2013-07-08 19:28:00,
2013-07-08 15:33:00,88.9,74.1,29.96,WNW,294,0.0,0.0,62,0.00,,,0.00,meteohub,2013-07-08 19:33:00,
2013-07-08 15:39:00,88.9,73.2,29.96,WNW,294,0.0,0.0,60,0.00,,,0.00,meteohub,2013-07-08 19:39:00,
2013-07-08 15:45:00,89.1,72.3,29.96,WNW,294,0.0,0.0,58,0.00,,,0.00,meteohub,2013-07-08 19:45:00,
2013-07-08 15:50:00,89.4,71.6,29.96,WNW,294,0.0,0.0,56,0.00,,,0.00,meteohub,2013-07-08 19:50:00,
2013-07-08 15:55:00,89.2,72.5,29.96,WNW,294,0.0,0.0,58,0.00,,,0.00,meteohub,2013-07-08 19:55:00,
2013-07-08 16:00:00,88.7,70.5,29.96,WNW,294,0.0,0.0,55,0.00,,,0.00,meteohub,2013-07-08 20:00:00,
2013-07-08 16:05:00,88.2,70.5,29.96,WNW,294,0.0,0.0,56,0.00,,,0.00,meteohub,2013-07-08 20:05:00,
2013-07-08 16:10:00,88.0,70.9,29.96,WNW,294,0.0,0.0,57,0.00,,,0.00,meteohub,2013-07-08 20:10:00,
2013-07-08 16:16:00,88.5,73.8,29.96,WNW,294,0.0,0.0,62,0.00,,,0.00,meteohub,2013-07-08 20:16:00,
2013-07-08 16:21:00,88.9,72.1,29.96,WNW,294,0.0,0.0,58,0.00,,,0.00,meteohub,2013-07-08 20:21:00,
2013-07-08 16:26:00,88.9,72.7,29.96,WNW,294,0.0,0.0,59,0.00,,,0.00,meteohub,2013-07-08 20:26:00,
2013-07-08 16:31:00,89.1,72.9,29.96,WNW,294,0.0,0.0,59,0.00,,,0.00,meteohub,2013-07-08 20:31:00,
2013-07-08 16:37:00,89.2,72.0,29.96,WNW,294,0.0,0.0,57,0.00,,,0.00,meteohub,2013-07-08 20:37:00,
2013-07-08 16:42:00,89.1,73.9,29.96,WNW,294,0.0,0.0,61,0.00,,,0.00,meteohub,2013-07-08 20:42:00,
2013-07-08 16:50:00,88.9,70.2,29.96,WNW,294,0.0,0.0,54,0.00,,,0.00,meteohub,2013-07-08 20:50:00,
2013-07-08 16:56:00,88.5,71.4,29.96,WNW,294,0.0,0.0,57,0.00,,,0.00,meteohub,2013-07-08 20:56:00,
2013-07-08 17:02:00,88.9,72.7,29.96,WNW,294,0.0,0.0,59,0.00,,,0.00,meteohub,2013-07-08 21:02:00,
2013-07-08 17:07:00,88.7,71.4,29.96,WNW,294,0.0,0.0,57,0.00,,,0.00,meteohub,2013-07-08 21:07:00,
2013-07-08 17:12:00,88.5,70.9,29.96,WNW,294,0.0,0.0,56,0.00,,,0.00,meteohub,2013-07-08 21:12:00,
2013-07-08 17:17:00,88.7,72.0,29.96,WNW,294,0.0,0.0,58,0.00,,,0.00,meteohub,2013-07-08 21:17:00,
2013-07-08 17:23:00,89.1,71.8,29.96,WNW,294,0.0,0.0,57,0.00,,,0.00,meteohub,2013-07-08 21:23:00,
2013-07-08 17:29:00,89.2,73.0,29.96,WNW,294,0.0,0.0,59,0.00,,,0.00,meteohub,2013-07-08 21:29:00,
2013-07-08 17:34:00,89.1,71.2,29.95,WNW,294,0.0,0.0,56,0.00,,,0.00,meteohub,2013-07-08 21:34:00,
2013-07-08 17:39:00,89.2,71.4,29.96,WNW,294,0.0,0.0,56,0.00,,,0.00,meteohub,2013-07-08 21:39:00,
2013-07-08 17:44:00,89.2,72.5,29.95,WNW,294,0.0,0.0,58,0.00,,,0.00,meteohub,2013-07-08 21:44:00,
2013-07-08 17:49:00,89.1,72.9,29.95,WNW,294,0.0,0.0,59,0.00,,,0.00,meteohub,2013-07-08 21:49:00,
2013-07-08 17:56:00,88.2,71.6,29.96,WNW,294,0.0,0.0,58,0.00,,,0.00,meteohub,2013-07-08 21:56:00,
2013-07-08 18:02:00,87.1,71.1,29.96,WNW,294,0.0,0.0,59,0.00,,,0.00,meteohub,2013-07-08 22:02:00,
2013-07-08 18:07:00,86.7,71.2,29.96,WNW,294,0.0,0.0,60,0.00,,,0.00,meteohub,2013-07-08 22:07:00,
2013-07-08 18:12:00,86.9,71.8,29.96,WNW,294,0.0,0.0,61,0.00,,,0.00,meteohub,2013-07-08 22:12:00,
2013-07-08 18:18:00,86.9,73.2,29.95,WNW,294,0.0,0.0,64,0.00,,,0.00,meteohub,2013-07-08 22:18:00,
2013-07-08 18:23:00,86.9,73.2,29.96,WNW,294,0.0,0.0,64,0.00,,,0.00,meteohub,2013-07-08 22:23:00,
2013-07-08 18:29:00,86.7,73.0,29.95,WNW,294,0.0,0.0,64,0.00,,,0.00,meteohub,2013-07-08 22:29:00,
2013-07-08 18:36:00,86.9,74.1,29.95,WNW,294,0.0,0.0,66,0.00,,,0.00,meteohub,2013-07-08 22:36:00,
2013-07-08 18:41:00,86.9,74.1,29.95,WNW,294,0.0,0.0,66,0.00,,,0.00,meteohub,2013-07-08 22:41:00,
2013-07-08 18:46:00,86.9,74.7,29.96,WNW,294,0.0,0.0,67,0.00,,,0.00,meteohub,2013-07-08 22:46:00,
2013-07-08 18:52:00,86.5,73.4,29.96,WNW,294,0.0,0.0,65,0.00,,,0.00,meteohub,2013-07-08 22:52:00,
2013-07-08 18:57:00,85.8,73.2,29.96,WNW,294,0.0,0.0,66,0.00,,,0.00,meteohub,2013-07-08 22:57:00,
2013-07-08 19:02:00,84.9,73.6,29.96,WNW,294,0.0,0.0,69,0.00,,,0.00,meteohub,2013-07-08 23:02:00,
2013-07-08 19:07:00,84.4,73.0,29.96,WNW,294,0.0,0.0,69,0.00,,,0.00,meteohub,2013-07-08 23:07:00,
2013-07-08 19:13:00,83.7,72.9,29.96,WNW,294,0.0,0.0,70,0.00,,,0.00,meteohub,2013-07-08 23:13:00,
2013-07-08 19:18:00,83.1,72.7,29.96,WNW,294,0.0,0.0,71,0.00,,,0.00,meteohub,2013-07-08 23:18:00,
2013-07-08 19:24:00,82.8,73.2,29.96,WNW,294,0.0,0.0,73,0.00,,,0.00,meteohub,2013-07-08 23:24:00,
2013-07-08 19:29:00,82.0,72.5,29.96,WNW,294,0.0,0.0,73,0.00,,,0.00,meteohub,2013-07-08 23:29:00,
2013-07-08 19:34:00,81.5,72.3,29.96,WNW,294,0.0,0.0,74,0.00,,,0.00,meteohub,2013-07-08 23:34:00,
2013-07-08 19:40:00,81.1,72.9,29.96,WNW,294,0.0,0.0,76,0.00,,,0.00,meteohub,2013-07-08 23:40:00,
2013-07-08 19:45:00,80.8,72.5,29.96,WNW,294,0.0,0.0,76,0.00,,,0.00,meteohub,2013-07-08 23:45:00,
2013-07-08 19:50:00,80.4,72.1,29.97,WNW,294,0.0,0.0,76,0.00,,,0.00,meteohub,2013-07-08 23:50:00,
2013-07-08 19:55:00,80.2,72.7,29.97,WNW,294,0.0,0.0,78,0.00,,,0.00,meteohub,2013-07-08 23:55:00,
2013-07-08 20:01:00,79.9,72.3,29.98,WNW,294,0.0,0.0,78,0.00,,,0.00,meteohub,2013-07-09 00:01:00,
2013-07-08 20:06:00,79.5,72.1,29.98,WNW,294,0.0,0.0,78,0.00,,,0.00,meteohub,2013-07-09 00:06:00,
2013-07-08 20:12:00,79.2,72.1,29.98,WNW,294,0.0,0.0,79,0.00,,,0.00,meteohub,2013-07-09 00:12:00,
2013-07-08 20:17:00,79.0,72.0,29.98,WNW,294,0.0,0.0,79,0.00,,,0.00,meteohub,2013-07-09 00:17:00,
2013-07-08 20:22:00,78.8,71.8,29.98,WNW,294,0.0,0.0,79,0.00,,,0.00,meteohub,2013-07-09 00:22:00,
2013-07-08 20:27:00,78.6,72.0,29.98,WNW,294,0.0,0.0,80,0.00,,,0.00,meteohub,2013-07-09 00:27:00,
2013-07-08 20:32:00,78.4,72.1,29.99,WNW,294,0.0,0.0,81,0.00,,,0.00,meteohub,2013-07-09 00:32:00,
2013-07-08 20:37:00,78.1,71.8,29.99,WNW,294,0.0,0.0,81,0.00,,,0.00,meteohub,2013-07-09 00:37:00,
2013-07-08 20:42:00,77.7,71.4,29.99,WNW,294,0.0,0.0,81,0.00,,,0.00,meteohub,2013-07-09 00:42:00,
2013-07-08 20:48:00,77.5,71.6,29.99,WNW,294,0.0,0.0,82,0.00,,,0.00,meteohub,2013-07-09 00:48:00,
2013-07-08 20:53:00,77.4,71.4,29.99,WNW,294,0.0,0.0,82,0.00,,,0.00,meteohub,2013-07-09 00:53:00,
2013-07-08 20:59:00,77.2,71.6,29.99,WNW,294,0.0,0.0,83,0.00,,,0.00,meteohub,2013-07-09 00:59:00,
2013-07-08 21:04:00,76.8,71.2,29.99,WNW,294,0.0,0.0,83,0.00,,,0.00,meteohub,2013-07-09 01:04:00,
2013-07-08 21:09:00,76.6,71.4,30.00,WNW,294,0.0,0.0,84,0.00,,,0.00,meteohub,2013-07-09 01:09:00,
2013-07-08 21:14:00,76.5,71.2,30.00,WNW,294,0.0,0.0,84,0.00,,,0.00,meteohub,2013-07-09 01:14:00,
2013-07-08 21:20:00,76.3,71.4,30.00,WNW,294,0.0,0.0,85,0.00,,,0.00,meteohub,2013-07-09 01:20:00,
2013-07-08 21:25:00,76.3,71.4,30.01,WNW,294,0.0,0.0,85,0.00,,,0.00,meteohub,2013-07-09 01:25:00,
2013-07-08 21:31:00,75.9,71.1,30.01,WNW,294,0.0,0.0,85,0.00,,,0.00,meteohub,2013-07-09 01:31:00,
2013-07-08 21:36:00,75.9,71.1,30.01,WNW,294,0.0,0.0,85,0.00,,,0.00,meteohub,2013-07-09 01:36:00,
2013-07-08 21:42:00,75.7,71.2,30.01,WNW,294,0.0,0.0,86,0.00,,,0.00,meteohub,2013-07-09 01:42:00,
2013-07-08 21:47:00,75.6,71.1,30.01,WNW,294,0.0,0.0,86,0.00,,,0.00,meteohub,2013-07-09 01:47:00,
2013-07-08 21:52:00,75.6,71.1,30.01,WNW,294,0.0,0.0,86,0.00,,,0.00,meteohub,2013-07-09 01:52:00,
2013-07-08 21:57:00,75.4,70.9,30.01,WNW,294,0.0,0.0,86,0.00,,,0.00,meteohub,2013-07-09 01:57:00,
2013-07-08 22:02:00,75.4,71.2,30.02,WNW,294,0.0,0.0,87,0.00,,,0.00,meteohub,2013-07-09 02:02:00,
2013-07-08 22:07:00,75.2,70.7,30.01,WNW,294,0.0,0.0,86,0.00,,,0.00,meteohub,2013-07-09 02:07:00,
2013-07-08 22:12:00,75.0,70.9,30.01,WNW,294,0.0,0.0,87,0.00,,,0.00,meteohub,2013-07-09 02:12:00,
2013-07-08 22:17:00,75.0,70.9,30.01,WNW,294,0.0,0.0,87,0.00,,,0.00,meteohub,2013-07-09 02:17:00,
2013-07-08 22:22:00,74.8,71.1,30.02,WNW,294,0.0,0.0,88,0.00,,,0.00,meteohub,2013-07-09 02:22:00,
2013-07-08 22:27:00,74.7,70.9,30.01,WNW,294,0.0,0.0,88,0.00,,,0.00,meteohub,2013-07-09 02:27:00,
2013-07-08 22:32:00,74.7,71.2,30.01,WNW,294,0.0,0.0,89,0.00,,,0.00,meteohub,2013-07-09 02:32:00,
2013-07-08 22:38:00,74.5,71.1,30.01,WNW,294,0.0,0.0,89,0.00,,,0.00,meteohub,2013-07-09 02:38:00,
2013-07-08 22:44:00,74.5,71.1,30.01,WNW,294,0.0,0.0,89,0.00,,,0.00,meteohub,2013-07-09 02:44:00,
2013-07-08 22:49:00,74.3,70.9,30.01,WNW,294,0.0,0.0,89,0.00,,,0.00,meteohub,2013-07-09 02:49:00,
2013-07-08 22:55:00,74.3,70.9,30.01,WNW,294,0.0,0.0,89,0.10,,,0.10,meteohub,2013-07-09 02:55:00,
2013-07-08 23:00:00,74.1,70.7,30.01,WNW,294,0.0,0.0,89,0.18,,,0.18,meteohub,2013-07-09 03:00:00,
2013-07-08 23:05:00,74.1,71.1,30.01,WNW,294,0.0,0.0,90,0.18,,,0.18,meteohub,2013-07-09 03:05:00,
2013-07-08 23:10:00,73.9,70.5,30.01,WNW,294,0.0,0.0,89,0.18,,,0.18,meteohub,2013-07-09 03:10:00,
2013-07-08 23:16:00,73.9,70.9,30.01,WNW,294,0.0,0.0,90,0.18,,,0.18,meteohub,2013-07-09 03:16:00,
2013-07-08 23:22:00,73.8,70.7,30.01,WNW,294,0.0,0.0,90,0.18,,,0.18,meteohub,2013-07-09 03:22:00,
2013-07-08 23:27:00,73.6,70.7,30.01,WNW,294,0.0,0.0,91,0.18,,,0.18,meteohub,2013-07-09 03:27:00,
2013-07-08 23:33:00,73.4,70.9,30.01,WNW,294,0.0,0.0,92,0.18,,,0.18,meteohub,2013-07-09 03:33:00,
2013-07-08 23:38:00,73.2,70.5,30.01,WNW,294,0.0,0.0,91,0.18,,,0.18,meteohub,2013-07-09 03:38:00,
2013-07-08 23:43:00,73.2,70.5,30.01,WNW,294,0.0,0.0,91,0.18,,,0.18,meteohub,2013-07-09 03:43:00,
2013-07-08 23:48:00,73.0,70.5,30.01,WNW,294,0.0,0.0,92,0.18,,,0.18,meteohub,2013-07-09 03:48:00,
2013-07-08 23:53:00,72.9,70.7,30.01,WNW,294,0.0,0.0,93,0.00,,,0.18,meteohub,2013-07-09 03:53:00,
2013-07-08 23:59:00,72.9,70.7,30.01,WNW,294,0.0,0.0,93,0.00,,,0.18,meteohub,2013-07-09 03:59:00,